Find Gxiba-1

NORAD ID: 67685 Int'l Des: 1998-067 Owner: UPAEP Country: MX operational
LEOCIRCULAR

Current View

Loading 3D Globe...

About Gxiba-1

Description loading...

Upcoming Passes

Passes for default location (London). Set your location on the main map for personalized predictions.

Altitude History

Loading altitude history...

Two-Line Element Set

1 67685U 98067YB 26144.97483317 .00048472 00000-0 61449-3 0 9993
2 67685 51.6289 50.5589 0013488 113.7790 246.4618 15.58858192 16661
Epoch: May 24, 2026 • Age: 32 hours

Current Status

Altitude 407.4 km
Velocity 7.66 km/s
Sub-Earth Point -28.80°S, 21.15°E
Launch Date Oct 26, 2025
Age 0.5 years
Type other

Technical Details

Classification Payload
Mass 1.00 kg
Dry Mass 1.00 kg
Total Mass 1.00 kg
Length 0.10 m
Diameter 0.10 m
Span 0.10 m
Shape Box
Manufacturer UPAEP
Bus Type Cubesat 1U
Phase Status In Orbit
Owner/State UPAEP/MX

Most Searched